User: anonymous   Login
Location: Bannatyne
(13.0833°N, 59.5333°W)
Time: 01:47:56
(UTC+00:00)
Language:

FengYun 1-2 T - Orbit

View from above orbital plane
View from above orbital plane
View from above satellite
View from above satellite

Ground track
Ground track

The orbit data is extracted from the following two-line orbital elements,

1 20855U 90081T   19345.80827347  .00000078  00000-0  69967-4 0  9995
2 20855  98.7227   2.4019 0024406  22.3607 150.4618 14.08670929504548
Epoch (UTC): 11 December 2019 19:23:54
Eccentricity: 0.0024406
inclination: 98.7227°
perigee height: 846 km
apogee height: 881 km
right ascension of ascending node: 2.4019°
argument of perigee: 22.3607°
revolutions per day: 14.08670929
mean anomaly at epoch: 150.4618°
orbit number at epoch: 50454

The dashed part of the orbit path shows where the satellite is in the earth's shadow,  

DLR